�N����,����,�~����,�C��,���x,�C��,����,���ϕ���,�ő�u�ԕ���,�ő厞����,���˗�,�I�_���x,�n�����x,�ő啗���N��,DTYPE
"21/05/10","00:10",0.0,9.4,83.0,1006.9,296.6,1.3,2.1,317.7,0.00,6.7,130.0,"00:00:56",1
"21/05/10","00:20",0.0,9.4,83.9,1006.2,303.6,1.8,2.9,313.0,0.00,6.9,130.0,"00:19:20",1
"21/05/10","00:30",0.0,9.4,84.7,1006.2,324.1,2.2,3.6,333.9,0.00,7.0,130.0,"00:27:04",1
"21/05/10","00:40",0.0,9.5,85.3,1006.4,289.3,1.8,2.5,308.8,0.00,7.2,130.0,"00:33:52",1
"21/05/10","00:50",0.0,9.6,85.6,1006.4,306.2,1.8,3.3,314.6,0.00,7.3,130.0,"00:42:08",1
"21/05/10","01:00",0.0,9.5,85.8,1006.2,304.2,2.1,3.4,325.9,0.00,7.3,130.0,"00:50:56",1
"21/05/10","01:10",0.0,9.5,85.8,1006.7,321.1,2.1,2.9,320.6,0.00,7.3,130.0,"01:06:08",1
"21/05/10","01:20",0.0,9.5,85.6,1006.4,316.1,2.1,3.4,318.4,0.00,7.2,130.0,"01:12:08",1
"21/05/10","01:30",0.0,9.2,85.7,1006.4,317.6,2.0,3.2,322.8,0.00,7.0,130.0,"01:20:24",1
"21/05/10","01:40",0.0,9.3,85.5,1006.2,282.2,2.0,2.9,264.1,0.00,7.0,130.0,"01:33:52",1
"21/05/10","01:50",0.0,9.3,85.1,1006.4,326.0,2.2,3.2,330.3,0.00,7.0,130.0,"01:48:40",1
"21/05/10","02:00",0.0,9.5,84.5,1007.1,334.2,2.0,3.4,328.4,0.00,7.1,130.0,"01:50:08",1
"21/05/10","02:10",0.0,9.1,83.9,1006.4,298.5,1.0,1.6,293.7,0.00,6.6,130.0,"02:06:32",1
"21/05/10","02:20",0.0,8.7,84.1,1006.4,308.2,1.2,2.2,337.6,0.00,6.2,130.0,"02:16:56",1
"21/05/10","02:30",0.0,8.3,84.4,1006.4,294.2,1.3,2.5,310.3,0.00,5.9,130.0,"02:20:48",1
"21/05/10","02:40",0.0,8.4,84.9,1006.4,276.6,1.5,2.2,271.5,0.00,6.1,130.0,"02:37:44",1
"21/05/10","02:50",0.0,8.7,85.1,1006.4,293.2,2.1,2.8,295.0,0.00,6.4,130.0,"02:46:48",1
"21/05/10","03:00",0.0,8.7,85.3,1006.4,287.2,1.8,2.4,291.4,0.00,6.4,130.0,"02:57:04",1
"21/05/10","03:10",0.0,8.7,85.2,1006.4,319.6,2.6,3.4,313.7,0.00,6.4,130.0,"03:08:00",1
"21/05/10","03:20",0.0,8.8,84.8,1006.7,294.0,2.2,2.9,327.1,0.00,6.4,130.0,"03:13:12",1
"21/05/10","03:30",0.0,8.9,84.1,1006.7,300.6,3.1,4.8,308.5,0.00,6.4,130.0,"03:23:20",1
"21/05/10","03:40",0.0,9.0,83.1,1006.4,319.2,2.6,5.1,320.4,0.00,6.3,130.0,"03:30:40",1
"21/05/10","03:50",0.0,8.7,82.3,1006.9,311.7,2.5,4.8,316.4,0.00,5.9,130.0,"03:48:00",1
"21/05/10","04:00",0.0,9.2,80.7,1006.9,328.8,3.5,5.4,319.6,0.00,6.1,130.0,"03:50:24",1
"21/05/10","04:10",0.0,9.3,79.6,1007.1,330.0,3.5,4.4,333.8,0.00,6.0,130.0,"04:00:16",1
"21/05/10","04:20",0.0,9.8,78.0,1007.1,329.8,4.2,5.8,322.3,0.00,6.2,130.0,"04:16:56",1
"21/05/10","04:30",0.0,9.9,76.8,1006.9,325.6,4.0,5.2,329.3,0.00,6.1,130.0,"04:27:52",1
"21/05/10","04:40",0.0,9.5,76.0,1007.4,332.4,3.0,5.0,332.6,0.00,5.5,130.0,"04:34:08",1
"21/05/10","04:50",0.0,9.2,75.9,1006.9,337.1,3.1,5.4,338.9,0.00,5.2,130.0,"04:42:24",1
"21/05/10","05:00",0.0,9.2,76.1,1007.1,334.1,3.2,5.2,342.1,0.00,5.3,130.0,"04:57:04",1
"21/05/10","05:10",0.0,9.1,76.7,1007.1,329.6,3.1,4.3,317.4,0.00,5.3,130.0,"05:01:36",1
"21/05/10","05:20",0.0,8.9,77.3,1007.1,320.8,2.8,4.4,325.3,0.00,5.2,130.0,"05:13:04",1
"21/05/10","05:30",0.0,8.8,77.6,1007.4,312.7,1.6,3.3,336.8,0.00,5.1,130.0,"05:22:16",1
"21/05/10","05:40",0.0,8.7,78.1,1007.6,308.3,1.3,2.4,319.3,0.00,5.1,130.0,"05:37:36",1
"21/05/10","05:50",0.0,8.5,78.8,1007.4,305.1,1.6,2.2,312.3,0.00,5.1,130.0,"05:45:44",1
"21/05/10","06:00",0.0,8.6,79.7,1007.4,296.2,1.7,2.4,311.2,0.00,5.3,130.0,"05:51:36",1
"21/05/10","06:10",0.0,8.9,80.2,1007.6,307.3,2.1,2.7,315.6,0.01,5.7,130.0,"06:02:32",1
"21/05/10","06:20",0.0,9.6,80.4,1007.8,320.2,1.8,2.6,318.3,0.03,6.4,130.0,"06:11:28",1
"21/05/10","06:30",0.0,10.4,80.1,1008.1,322.7,1.2,1.9,328.4,0.04,7.2,130.0,"06:23:12",1
"21/05/10","06:40",0.0,11.4,79.4,1008.1,296.3,0.5,1.4,323.0,0.06,8.0,130.0,"06:32:00",1
"21/05/10","06:50",0.0,12.1,77.8,1008.1,324.5,0.8,1.6,323.9,0.07,8.4,130.0,"06:48:00",1
"21/05/10","07:00",0.0,12.8,76.2,1008.6,305.3,1.0,1.7,299.3,0.08,8.8,130.0,"06:59:52",1
"21/05/10","07:10",0.0,13.1,74.2,1008.6,331.6,0.7,1.4,284.6,0.10,8.7,130.0,"07:00:40",1
"21/05/10","07:20",0.0,13.7,71.9,1008.6,348.4,0.5,1.4,63.6,0.14,8.8,130.0,"07:13:36",1
"21/05/10","07:30",0.0,14.2,67.5,1008.8,156.7,0.6,1.6,113.1,0.17,8.3,130.0,"07:26:40",1
"21/05/10","07:40",0.0,14.9,65.2,1008.8,79.5,0.5,1.6,310.8,0.19,8.5,130.0,"07:39:52",1
"21/05/10","07:50",0.0,15.3,62.6,1008.8,344.5,0.8,1.6,333.5,0.22,8.3,130.0,"07:48:16",1
"21/05/10","08:00",0.0,15.9,59.6,1008.8,323.1,0.6,1.7,316.9,0.25,8.1,130.0,"07:50:32",1
"21/05/10","08:10",0.0,16.3,57.5,1009.3,355.4,0.6,1.3,332.0,0.27,7.9,130.0,"08:07:12",1
"21/05/10","08:20",0.0,17.0,56.7,1008.8,295.3,0.6,1.3,32.3,0.30,8.4,130.0,"08:19:36",1
"21/05/10","08:30",0.0,17.2,53.0,1009.0,254.7,0.7,1.3,242.1,0.32,7.6,130.0,"08:23:52",1
"21/05/10","08:40",0.0,17.3,52.0,1008.8,235.7,0.7,2.0,219.9,0.34,7.4,130.0,"08:37:04",1
"21/05/10","08:50",0.0,18.0,52.0,1007.8,180.1,0.7,1.7,171.1,0.36,8.0,130.0,"08:47:04",1
"21/05/10","09:00",0.0,18.4,52.2,1008.6,150.2,1.0,1.9,112.8,0.39,8.5,130.0,"08:57:52",1
"21/05/10","09:10",0.0,18.6,49.0,1008.8,109.6,0.8,1.9,107.4,0.41,7.7,130.0,"09:05:44",1
"21/05/10","09:20",0.0,19.0,49.9,1007.8,139.2,0.8,2.1,114.1,0.43,8.4,130.0,"09:18:56",1
"21/05/10","09:30",0.0,19.6,48.5,1008.1,149.9,0.8,2.6,121.5,0.45,8.5,130.0,"09:24:08",1
"21/05/10","09:40",0.0,20.3,48.0,1007.4,168.2,0.6,1.7,162.0,0.47,9.0,130.0,"09:33:36",1
"21/05/10","09:50",0.0,20.7,47.0,1007.4,173.2,1.0,2.5,166.9,0.49,9.0,130.0,"09:42:56",1
"21/05/10","10:00",0.0,21.1,45.8,1006.9,154.6,0.8,2.1,118.4,0.50,9.0,130.0,"09:51:44",1
"21/05/10","10:10",0.0,21.5,47.0,1006.9,177.8,1.2,2.8,142.3,0.52,9.8,130.0,"10:03:28",1
"21/05/10","10:20",0.0,21.7,43.0,1006.9,190.6,1.0,3.2,152.3,0.53,8.6,130.0,"10:19:52",1
"21/05/10","10:30",0.0,21.9,43.6,1007.1,170.9,1.3,2.9,149.5,0.54,9.0,130.0,"10:20:56",1
"21/05/10","10:40",0.0,21.9,44.4,1006.7,173.5,1.8,4.7,195.9,0.56,9.3,130.0,"10:33:12",1
"21/05/10","10:50",0.0,22.3,43.9,1007.1,170.1,1.6,3.5,149.3,0.57,9.5,130.0,"10:48:40",1
"21/05/10","11:00",0.0,22.4,41.9,1007.1,167.4,1.8,4.2,175.9,0.58,8.9,130.0,"10:58:16",1
"21/05/10","11:10",0.0,23.1,43.3,1006.9,155.1,1.3,3.4,165.8,0.58,10.0,130.0,"11:07:44",1
"21/05/10","11:20",0.0,23.0,41.4,1006.7,169.6,2.0,4.1,180.6,0.59,9.2,130.0,"11:13:44",1
"21/05/10","11:30",0.0,23.6,40.7,1006.4,186.1,1.2,2.4,133.2,0.59,9.5,130.0,"11:21:36",1
"21/05/10","11:40",0.0,23.8,39.2,1006.4,164.2,1.5,4.2,212.4,0.60,9.1,130.0,"11:38:40",1
"21/05/10","11:50",0.0,24.2,37.0,1006.0,163.6,1.0,2.9,260.1,0.60,8.6,130.0,"11:42:32",1
"21/05/10","12:00",0.0,24.1,36.8,1006.0,138.1,2.0,4.3,124.6,0.61,8.5,130.0,"11:58:56",1
"21/05/10","12:10",0.0,24.5,34.8,1006.0,154.6,1.6,3.9,196.8,0.61,8.0,130.0,"12:06:16",1
"21/05/10","12:20",0.0,24.2,31.3,1006.0,348.0,2.3,5.1,345.7,0.61,6.2,130.0,"12:14:40",1
"21/05/10","12:30",0.0,24.7,32.1,1005.5,131.4,1.3,2.5,25.9,0.61,7.0,130.0,"12:22:40",1
"21/05/10","12:40",0.0,25.5,35.4,1005.7,48.4,1.5,3.2,25.2,0.60,9.1,130.0,"12:34:00",1
"21/05/10","12:50",0.0,25.7,32.1,1005.5,224.5,1.3,3.4,217.9,0.59,7.9,130.0,"12:44:48",1
"21/05/10","13:00",0.0,25.3,32.0,1005.5,285.2,2.0,4.9,330.6,0.55,7.5,130.0,"12:52:24",1
"21/05/10","13:10",0.0,25.4,29.7,1004.8,323.8,1.3,4.3,347.7,0.57,6.5,130.0,"13:04:08",1
"21/05/10","13:20",0.0,25.8,33.3,1005.0,314.2,1.5,3.5,325.6,0.54,8.5,130.0,"13:15:12",1
"21/05/10","13:30",0.0,26.4,29.5,1005.2,236.2,1.3,2.7,222.2,0.58,7.2,130.0,"13:28:24",1
"21/05/10","13:40",0.0,25.6,31.9,1005.0,259.4,1.6,4.7,223.4,0.30,7.7,130.0,"13:37:44",1
"21/05/10","13:50",0.0,26.0,31.5,1005.2,252.5,1.6,3.6,257.3,0.56,7.9,130.0,"13:48:40",1
"21/05/10","14:00",0.0,25.7,32.2,1005.5,251.5,1.6,5.0,226.8,0.35,7.9,130.0,"13:54:56",1
"21/05/10","14:10",0.0,25.3,32.1,1004.8,327.1,2.1,4.4,355.6,0.35,7.5,130.0,"14:03:36",1
"21/05/10","14:20",0.0,26.1,31.0,1004.5,235.8,1.6,3.4,212.2,0.51,7.7,130.0,"14:11:04",1
"21/05/10","14:30",0.0,26.6,30.7,1004.8,283.4,1.3,3.7,335.6,0.50,8.0,130.0,"14:27:28",1
"21/05/10","14:40",0.0,26.7,29.9,1004.8,290.7,0.8,3.3,328.7,0.37,7.7,130.0,"14:33:04",1
"21/05/10","14:50",0.0,26.2,29.4,1004.8,232.6,1.1,2.8,214.4,0.32,7.0,130.0,"14:42:32",1
"21/05/10","15:00",0.0,25.7,31.2,1004.8,309.3,1.2,3.1,332.0,0.22,7.5,130.0,"14:55:36",1
"21/05/10","15:10",0.0,25.0,34.3,1004.8,334.8,1.5,5.1,344.3,0.14,8.2,130.0,"15:09:44",1
"21/05/10","15:20",0.0,24.0,34.4,1005.2,65.8,1.6,4.5,45.9,0.14,7.4,130.0,"15:19:12",1
"21/05/10","15:30",0.0,23.3,38.5,1005.2,21.1,2.3,5.1,349.7,0.15,8.4,130.0,"15:29:36",1
"21/05/10","15:40",0.0,22.1,41.3,1006.2,354.0,3.0,5.0,353.7,0.08,8.4,130.0,"15:30:32",1
"21/05/10","15:50",0.0,21.8,43.1,1006.4,12.4,2.5,5.7,333.4,0.10,8.8,130.0,"15:42:32",1
"21/05/10","16:00",0.0,21.7,45.3,1006.4,10.5,2.6,6.7,337.5,0.20,9.4,130.0,"15:57:44",1
"21/05/10","16:10",0.0,21.7,46.0,1006.9,355.4,2.5,6.7,332.1,0.21,9.6,130.0,"16:09:28",1
"21/05/10","16:20",0.0,21.4,47.0,1006.7,351.3,3.5,9.0,339.2,0.21,9.7,130.0,"16:11:52",1
"21/05/10","16:30",0.0,20.8,45.2,1006.9,7.8,3.0,6.2,47.7,0.12,8.5,130.0,"16:26:32",1
"21/05/10","16:40",0.0,20.3,48.7,1006.9,346.9,3.4,7.5,349.7,0.09,9.2,130.0,"16:30:32",1
"21/05/10","16:50",0.0,19.7,50.1,1006.7,346.0,3.4,8.8,340.4,0.05,9.1,130.0,"16:42:00",1
"21/05/10","17:00",0.0,19.7,51.3,1006.9,346.8,2.7,5.2,345.4,0.06,9.4,130.0,"16:57:12",1
"21/05/10","17:10",0.0,19.7,52.2,1006.9,351.5,2.7,6.0,326.1,0.10,9.7,130.0,"17:02:16",1
"21/05/10","17:20",0.0,19.4,54.4,1007.4,345.9,3.5,7.5,332.2,0.06,10.0,130.0,"17:16:24",1
"21/05/10","17:30",0.0,19.1,55.3,1007.4,348.6,3.1,7.3,330.4,0.05,10.0,130.0,"17:26:24",1
"21/05/10","17:40",0.0,18.8,56.1,1007.4,341.1,3.5,6.6,328.7,0.02,9.9,130.0,"17:31:28",1
"21/05/10","17:50",0.0,18.6,56.9,1007.8,342.7,2.3,4.9,334.5,0.00,9.9,130.0,"17:41:28",1
"21/05/10","18:00",0.0,18.5,57.0,1008.1,343.8,2.6,4.8,25.3,0.00,9.9,130.0,"17:59:36",1
"21/05/10","18:10",0.0,18.5,56.4,1007.6,347.6,2.1,4.1,342.2,0.00,9.7,130.0,"18:08:40",1
"21/05/10","18:20",0.0,18.4,57.5,1007.8,349.6,2.3,4.9,345.3,0.00,9.9,130.0,"18:13:44",1
"21/05/10","18:30",0.0,18.2,59.3,1007.6,348.8,2.2,4.8,36.3,0.00,10.2,130.0,"18:21:52",1
"21/05/10","18:40",0.0,18.0,59.7,1007.8,0.5,2.3,4.3,21.8,0.00,10.1,130.0,"18:39:12",1
"21/05/10","18:50",0.0,17.9,60.6,1008.1,343.0,2.5,5.7,347.7,0.00,10.2,130.0,"18:41:44",1
"21/05/10","19:00",0.0,17.8,60.5,1008.6,343.6,2.2,7.1,340.4,0.00,10.1,130.0,"18:50:24",1
"21/05/10","19:10",0.0,17.6,60.8,1009.0,349.1,2.0,6.5,343.1,0.00,10.0,130.0,"19:01:36",1
"21/05/10","19:20",0.0,17.5,61.4,1009.3,341.8,1.7,3.3,337.1,0.00,10.0,130.0,"19:17:12",1
"21/05/10","19:30",0.0,17.4,61.8,1009.0,336.4,1.2,2.5,330.1,0.00,10.0,130.0,"19:21:52",1
"21/05/10","19:40",0.0,17.3,62.2,1008.6,357.9,1.3,2.5,11.9,0.00,10.0,130.0,"19:39:52",1
"21/05/10","19:50",0.0,17.4,62.5,1009.0,342.7,1.5,3.3,344.4,0.00,10.2,130.0,"19:40:02",1
"21/05/10","20:00",0.0,17.2,62.9,1009.0,337.7,1.7,3.2,332.1,0.00,10.1,130.0,"19:50:40",1
"21/05/10","20:10",0.0,17.1,64.0,1009.3,340.0,2.2,4.7,338.9,0.00,10.3,130.0,"20:03:04",1
"21/05/10","20:20",0.0,17.0,64.8,1009.3,348.2,1.7,4.4,342.2,0.00,10.4,130.0,"20:13:36",1
"21/05/10","20:30",0.0,16.8,65.2,1009.7,346.0,1.7,3.2,7.4,0.00,10.3,130.0,"20:24:32",1
"21/05/10","20:40",0.0,16.7,65.1,1009.3,345.2,1.6,3.3,335.6,0.00,10.2,130.0,"20:38:56",1
"21/05/10","20:50",0.0,16.6,65.4,1009.3,329.4,2.3,4.0,339.7,0.00,10.1,130.0,"20:43:28",1
"21/05/10","21:00",0.0,16.6,65.4,1009.5,328.2,2.6,4.3,318.0,0.00,10.1,130.0,"20:50:48",1
"21/05/10","21:10",0.0,16.5,65.4,1009.7,337.8,1.8,3.7,343.1,0.00,10.0,130.0,"21:04:56",1
"21/05/10","21:20",0.0,16.5,65.2,1009.7,5.2,0.8,2.4,0.0,0.00,10.0,130.0,"21:11:12",1
"21/05/10","21:30",0.0,16.6,65.3,1009.5,342.4,0.8,1.7,339.6,0.00,10.1,130.0,"21:26:48",1
"21/05/10","21:40",0.0,16.4,66.2,1009.7,332.8,0.8,1.6,357.1,0.00,10.1,130.0,"21:36:08",1
"21/05/10","21:50",0.0,16.3,66.8,1009.7,304.0,0.5,1.3,318.5,0.00,10.2,130.0,"21:40:32",1
"21/05/10","22:00",0.0,16.3,67.8,1009.7,326.3,1.2,2.0,324.3,0.00,10.4,130.0,"21:58:16",1
"21/05/10","22:10",0.0,16.0,68.8,1009.5,311.0,1.0,1.6,317.1,0.00,10.3,130.0,"22:04:24",1
"21/05/10","22:20",0.0,15.9,69.5,1009.5,335.2,1.1,1.7,328.1,0.00,10.4,130.0,"22:17:20",1
"21/05/10","22:30",0.0,15.9,69.9,1010.0,329.8,1.1,1.7,334.5,0.00,10.5,130.0,"22:21:52",1
"21/05/10","22:40",0.0,15.9,70.3,1009.3,319.8,0.8,1.8,316.8,0.00,10.5,130.0,"22:31:44",1
"21/05/10","22:50",0.0,15.9,70.7,1009.7,350.9,0.6,1.7,97.1,0.00,10.6,130.0,"22:41:20",1
"21/05/10","23:00",0.0,15.9,71.0,1009.7,42.2,0.7,1.9,335.3,0.00,10.7,130.0,"22:50:32",1
"21/05/10","23:10",0.0,15.7,71.3,1009.7,321.5,1.0,1.6,333.9,0.00,10.6,130.0,"23:01:52",1
"21/05/10","23:20",0.0,15.4,71.9,1009.7,301.1,1.1,1.3,326.9,0.00,10.4,130.0,"23:11:20",1
"21/05/10","23:30",0.0,15.2,72.7,1010.0,312.2,1.3,1.7,322.3,0.00,10.4,130.0,"23:24:48",1
"21/05/10","23:40",0.0,15.0,73.3,1009.5,309.2,1.2,2.2,325.3,0.00,10.3,130.0,"23:30:56",1
"21/05/10","23:50",0.0,14.7,74.0,1009.5,326.8,1.6,2.5,327.2,0.00,10.2,130.0,"23:46:32",1
"21/05/10","24:00",0.0,14.5,75.2,1009.7,330.1,1.3,1.8,323.9,0.00,10.2,130.0,"23:56:00",1
